Blue Canyon, CA

1:54 AM PDT on May 28, 2017 (GMT -0700)
Blue Canyon-Nyack

Weather History for KBLU - November, 2012

Change the Weather History Date:

Saturday, November 17, 2012

  Actual Average Record
Temperature  
Mean Temperature 40 °F -  
Max Temperature 44 °F 48 °F 68 °F (1976)
Min Temperature 37 °F 36 °F 20 °F (1958)
Degree Days  
Heating Degree Days 24    
Moisture  
Dew Point 41 °F    
Average Humidity 98    
Maximum Humidity 100    
Minimum Humidity 93    
Precipitation  
Precipitation 2.42 in - - ()
Sea Level Pressure  
Sea Level Pressure 29.93 in    
Wind  
Wind Speed 16 mph (South)    
Max Wind Speed 24 mph    
Max Gust Speed 37 mph    
Visibility 2 miles    
Events Fog , Rain    
Averages and records for this station are not official NWS values.
T = Trace of Precipitation, MM = Missing Value Source: NWS Daily Summary

Daily Weather History Graph

Daily Weather History Graph

Search for Another Location

Airport or City:

Trip Planner

Search our weather history database for the weather conditions in past years. The results will help you decide how hot, cold, wet, or windy it might be!

Date:

Astronomy

Nov. 17, 2012 Rise Set
Actual Time 6:49 AM PST 4:46 PM PST
Civil Twilight 6:20 AM PST 5:15 PM PST
Nautical Twilight 5:47 AM PST 5:47 PM PST
Astronomical Twilight 5:16 AM PST 6:19 PM PST
Moon 10:37 AM PST (11/17) 9:02 PM PST (11/17)
Length of Visible Light 10h 54m
Length of Day
9h 57m
Waxing Crescent, 21% of the Moon is Illuminated
Nov 17
Waxing Crescent
Nov 20
First Quarter
Nov 28
Full
Dec 6
Last Quarter
Dec 13
New

Hourly Weather History & Observations

Time (PST) Temp. Windchill Dew Point Humidity Pressure Visibility Wind Dir Wind Speed Gust Speed Precip Events Conditions
12:11 AM 42.8 °F 35.8 °F 41.0 °F 93% 29.97 in 3.0 mi SE 13.8 mph 27.6 mph 0.03 in Rain Rain
12:29 AM 41.0 °F 31.9 °F 39.2 °F 93% 29.97 in 7.0 mi SSE 19.6 mph 36.8 mph 0.06 in Rain Light Rain
12:52 AM 41.0 °F 33.1 °F 41.0 °F 100% 29.90 in 4.0 mi SSE 15.0 mph 23.0 mph 0.08 in Rain Light Rain
12:59 AM 42.8 °F 36.6 °F 41.0 °F 93% 29.96 in 3.0 mi SSE 11.5 mph 23.0 mph 0.00 in Rain Light Rain
1:03 AM 42.8 °F 35.1 °F 41.0 °F 93% 29.96 in 1.8 mi SSE 16.1 mph 26.5 mph 0.01 in Rain Rain
1:18 AM 42.8 °F 35.4 °F 41.0 °F 93% 29.95 in 0.8 mi SSE 15.0 mph 26.5 mph 0.03 in Rain Light Rain
1:28 AM 42.8 °F 34.3 °F 42.8 °F 100% 29.95 in 0.5 mi SSE 19.6 mph 33.4 mph 0.03 in Fog , Rain Light Rain
1:52 AM 43.0 °F 33.5 °F 42.1 °F 97% 29.88 in 0.8 mi SSE 24.2 mph 33.4 mph 0.03 in Rain Light Rain
2:04 AM 42.8 °F 35.1 °F 42.8 °F 100% 29.95 in 0.2 mi SSE 16.1 mph 31.1 mph 0.00 in Fog , Rain Light Rain
2:19 AM 42.8 °F 34.5 °F 41.0 °F 93% 29.95 in 1.5 mi South 18.4 mph 33.4 mph 0.02 in Rain Light Rain
2:26 AM 42.8 °F 34.5 °F 41.0 °F 93% 29.95 in 4.0 mi South 18.4 mph 29.9 mph 0.02 in Rain Light Rain
2:31 AM 42.8 °F 35.4 °F 41.0 °F 93% 29.95 in 1.8 mi South 15.0 mph 26.5 mph 0.02 in Rain Light Rain
2:39 AM 41.0 °F 32.2 °F 41.0 °F 100% 29.95 in 1.0 mi South 18.4 mph 29.9 mph 0.04 in Rain Rain
2:44 AM 41.0 °F 33.5 °F 39.2 °F 93% 29.95 in 2.0 mi South 13.8 mph 29.9 mph 0.05 in Rain Rain
2:52 AM 41.0 °F 34.7 °F 41.0 °F 100% 29.89 in 1.0 mi SSE 10.4 mph 20.7 mph 0.06 in Rain Light Rain
2:57 AM 41.0 °F 34.3 °F 41.0 °F 100% 29.94 in 0.2 mi SSE 11.5 mph 20.7 mph 0.01 in Fog , Rain Light Rain
3:05 AM 42.8 °F 35.8 °F 42.8 °F 100% 29.94 in 0.2 mi SSE 13.8 mph 20.7 mph 0.01 in Fog , Rain Light Rain
3:13 AM 42.8 °F 35.4 °F 41.0 °F 93% 29.94 in 1.0 mi SSE 15.0 mph 25.3 mph 0.01 in Rain Light Rain
3:15 AM 42.8 °F 35.1 °F 41.0 °F 93% 29.94 in 2.5 mi SSE 16.1 mph 25.3 mph 0.01 in Rain Light Rain
3:22 AM 42.8 °F 34.8 °F 41.0 °F 93% 29.94 in 5.0 mi SSE 17.3 mph 26.5 mph 0.01 in Rain Light Rain
3:41 AM 41.0 °F 33.1 °F 41.0 °F 100% 29.94 in 2.5 mi SSE 15.0 mph 35.7 mph 0.03 in Rain Light Rain
3:48 AM 41.0 °F 32.8 °F 41.0 °F 100% 29.94 in 5.0 mi SSE 16.1 mph 32.2 mph 0.04 in Rain Light Rain
3:52 AM 41.0 °F 30.9 °F 39.9 °F 96% 29.88 in 5.0 mi South 24.2 mph 34.5 mph 0.04 in Rain Light Rain
4:37 AM 41.0 °F 33.5 °F 39.2 °F 93% 29.93 in 7.0 mi SSE 13.8 mph 24.2 mph 0.07 in Rain Light Rain
4:52 AM 41.0 °F 35.2 °F 39.9 °F 96% 29.86 in 5.0 mi SSE 9.2 mph 18.4 mph 0.10 in Rain Light Rain
5:36 AM 41.0 °F 33.5 °F 39.2 °F 93% 29.92 in 2.0 mi SSE 13.8 mph 28.8 mph 0.10 in Rain Light Rain
5:42 AM 41.0 °F 33.9 °F 39.2 °F 93% 29.92 in 1.2 mi SSE 12.7 mph 24.2 mph 0.11 in Rain Light Rain
5:52 AM 41.0 °F 34.3 °F 39.9 °F 96% 29.86 in 1.8 mi SSE 11.5 mph 26.5 mph 0.11 in Rain Light Rain
5:59 AM 41.0 °F 32.5 °F 39.2 °F 93% 29.91 in 2.5 mi SSE 17.3 mph 27.6 mph 0.03 in Rain Rain
6:22 AM 41.0 °F 32.5 °F 39.2 °F 93% 29.91 in 5.0 mi SSE 17.3 mph 28.8 mph 0.05 in Rain Light Rain
6:48 AM 41.0 °F 33.5 °F 39.2 °F 93% 29.91 in 1.8 mi SSE 13.8 mph 25.3 mph 0.05 in Rain Light Rain
6:52 AM 41.0 °F 33.1 °F 41.0 °F 100% 29.86 in 1.5 mi SSE 15.0 mph 26.5 mph 0.05 in Rain Light Rain
6:59 AM 41.0 °F 33.1 °F 39.2 °F 93% 29.91 in 1.0 mi SSE 15.0 mph 27.6 mph 0.01 in Rain Light Rain
7:09 AM 41.0 °F 32.5 °F 41.0 °F 100% 29.91 in 2.0 mi SSE 17.3 mph 28.8 mph 0.03 in Rain Rain
7:15 AM 41.0 °F 33.1 °F 41.0 °F 100% 29.91 in 1.2 mi SSE 15.0 mph 26.5 mph 0.06 in Rain Light Rain
7:27 AM 42.8 °F 36.2 °F 41.0 °F 93% 29.91 in 0.2 mi South 12.7 mph 31.1 mph 0.06 in Fog , Rain Light Rain
7:34 AM 42.8 °F 34.8 °F 41.0 °F 93% 29.92 in 0.2 mi South 17.3 mph 29.9 mph 0.06 in Fog , Rain Light Rain
7:52 AM 42.1 °F 34.2 °F 41.0 °F 96% 29.86 in 0.2 mi SSE 16.1 mph 27.6 mph 0.08 in Fog , Rain Light Rain
8:52 AM 42.1 °F 33.9 °F 42.1 °F 100% 29.85 in 0.2 mi South 17.3 mph 25.3 mph 0.07 in Fog , Rain Rain
9:30 AM 42.8 °F 34.3 °F 42.8 °F 100% 29.92 in 0.5 mi SSE 19.6 mph 32.2 mph 0.11 in Fog , Rain Light Rain
9:33 AM 42.8 °F 34.3 °F 42.8 °F 100% 29.91 in 1.5 mi SSE 19.6 mph 32.2 mph 0.12 in Rain Light Rain
9:39 AM 42.8 °F 36.6 °F 42.8 °F 100% 29.91 in 3.0 mi SSE 11.5 mph 31.1 mph 0.12 in Rain Light Rain
9:52 AM 42.1 °F 34.5 °F 42.1 °F 100% 29.86 in 1.8 mi SSE 15.0 mph 32.2 mph 0.12 in Rain Light Rain
10:03 AM 42.8 °F 35.8 °F 42.8 °F 100% 29.92 in 1.0 mi South 13.8 mph 31.1 mph 0.05 in Rain Heavy Rain
10:09 AM 42.8 °F 34.5 °F 42.8 °F 100% 29.91 in 0.2 mi SSE 18.4 mph 27.6 mph 0.08 in Fog , Rain Rain
10:52 AM 43.0 °F 35.1 °F 43.0 °F 100% 29.86 in 0.2 mi South 17.3 mph 31.1 mph 0.22 in Fog , Rain Rain
11:25 AM 42.8 °F 34.0 °F 42.8 °F 100% 29.91 in 0.2 mi South 20.7 mph 33.4 mph 0.11 in Fog , Rain Light Rain
11:52 AM 44.1 °F 37.1 °F 44.1 °F 100% 29.84 in 0.2 mi South 15.0 mph 32.2 mph 0.18 in Fog , Rain Light Rain
12:12 PM 42.8 °F 34.3 °F 42.8 °F 100% 29.91 in 0.2 mi South 19.6 mph 28.8 mph 0.02 in Fog , Rain Rain
12:52 PM 44.1 °F 36.2 °F 44.1 °F 100% 29.84 in 0.2 mi SSW 18.4 mph 27.6 mph 0.16 in Fog , Rain Light Rain
1:52 PM 44.1 °F 37.1 °F 43.0 °F 96% 29.84 in 0.2 mi SSW 15.0 mph 32.2 mph 0.09 in Fog , Rain Light Rain
2:18 PM 44.6 °F 37.8 °F 44.6 °F 100% 29.91 in 0.5 mi SSW 15.0 mph 21.9 mph 0.06 in Fog , Rain Light Rain
2:36 PM 44.6 °F 37.4 °F 44.6 °F 100% 29.91 in 0.2 mi South 16.1 mph 25.3 mph 0.09 in Fog , Rain Light Rain
2:52 PM 44.1 °F 37.7 °F 44.1 °F 100% 29.84 in 0.2 mi SSW 12.7 mph 23.0 mph 0.11 in Fog , Rain Light Rain
3:05 PM 44.6 °F 36.9 °F 44.6 °F 100% 29.92 in 0.5 mi SSW 18.4 mph 27.6 mph 0.02 in Fog , Rain Light Rain
3:13 PM 44.6 °F 38.1 °F 44.6 °F 100% 29.92 in 0.2 mi SSW 13.8 mph 26.5 mph 0.07 in Fog , Rain Rain
3:52 PM 43.0 °F 36.0 °F 43.0 °F 100% 29.87 in 0.2 mi SSW 13.8 mph 23.0 mph 0.11 in Fog , Rain Light Rain
4:18 PM 42.8 °F 36.2 °F 42.8 °F 100% 29.94 in 0.5 mi SSW 12.7 mph 20.7 mph 0.00 in Fog , Rain Light Rain
4:29 PM 42.8 °F 36.2 °F 42.8 °F 100% 29.94 in 1.8 mi SSW 12.7 mph 23.0 mph 0.00 in Rain Light Rain
4:31 PM 42.8 °F 34.8 °F 42.8 °F 100% 29.94 in 3.0 mi South 17.3 mph 24.2 mph 0.00 in Rain Light Rain
4:52 PM 42.1 °F 34.9 °F 41.0 °F 96% 29.89 in 3.0 mi SSW 13.8 mph 25.3 mph 0.00 in Rain Light Rain
4:55 PM 41.0 °F 33.5 °F 41.0 °F 100% 29.95 in 1.8 mi SSW 13.8 mph 25.3 mph 0.00 in   Overcast
5:12 PM 41.0 °F 33.5 °F 41.0 °F 100% 29.95 in 0.8 mi South 13.8 mph 26.5 mph 0.02 in Rain Light Rain
5:23 PM 41.0 °F 33.9 °F 39.2 °F 93% 29.96 in 1.5 mi SSW 12.7 mph 26.5 mph 0.02 in   Overcast
5:26 PM 39.2 °F 31.6 °F 39.2 °F 100% 29.96 in 4.0 mi SSW 12.7 mph 24.2 mph 0.02 in   Overcast
5:48 PM 39.2 °F 30.8 °F 39.2 °F 100% 29.96 in 1.8 mi South 15.0 mph 23.0 mph 0.02 in   Overcast
5:52 PM 39.9 °F 32.1 °F 39.9 °F 100% 29.91 in 0.8 mi South 13.8 mph 23.0 mph 0.02 in   Overcast
6:14 PM 39.2 °F 31.2 °F 39.2 °F 100% 29.97 in 0.2 mi South 13.8 mph 20.7 mph N/A Fog Fog
6:27 PM 39.2 °F 31.2 °F 39.2 °F 100% 29.96 in 0.5 mi South 13.8 mph 20.7 mph N/A Fog Fog
6:38 PM 39.2 °F 30.2 °F 39.2 °F 100% 29.96 in 1.5 mi South 17.3 mph 24.2 mph N/A   Overcast
6:40 PM 39.2 °F 29.8 °F 39.2 °F 100% 29.97 in 4.0 mi SSE 18.4 mph 24.2 mph N/A   Overcast
6:48 PM 39.2 °F 30.8 °F 39.2 °F 100% 29.96 in 6.0 mi SSE 15.0 mph 24.2 mph N/A   Overcast
6:52 PM 39.0 °F 30.6 °F 39.0 °F 100% 29.92 in 4.0 mi SSE 15.0 mph 24.2 mph N/A   Overcast
6:59 PM 39.2 °F 30.8 °F 39.2 °F 100% 29.96 in 1.8 mi South 15.0 mph 20.7 mph N/A   Overcast
7:08 PM 39.2 °F 31.2 °F 39.2 °F 100% 29.96 in 3.0 mi SSE 13.8 mph 21.9 mph N/A   Overcast
7:42 PM 39.2 °F 30.2 °F 37.4 °F 93% 29.96 in 1.8 mi South 17.3 mph 21.9 mph N/A   Overcast
7:46 PM 37.4 °F 27.5 °F 37.4 °F 100% 29.96 in 3.0 mi SSE 18.4 mph 24.2 mph N/A   Overcast
7:52 PM 37.9 °F 30.0 °F 37.9 °F 100% 29.92 in 8.0 mi South 12.7 mph 24.2 mph N/A   Overcast
8:13 PM 37.4 °F 29.3 °F 37.4 °F 100% 29.96 in 9.0 mi SSE 12.7 mph 20.7 mph 0.00 in Rain Light Rain
8:29 PM 37.4 °F 28.5 °F 37.4 °F 100% 29.96 in 4.0 mi SSE 15.0 mph 26.5 mph 0.01 in Rain Rain
8:43 PM 37.4 °F 28.5 °F 37.4 °F 100% 29.97 in 1.8 mi SSE 15.0 mph 26.5 mph 0.05 in Rain Rain
8:52 PM 37.9 °F 28.2 °F 37.0 °F 97% 29.93 in 1.0 mi South 18.4 mph 27.6 mph 0.10 in Rain Rain
9:08 PM 37.4 °F 28.2 °F 37.4 °F 100% 29.98 in 0.8 mi South 16.1 mph 24.2 mph 0.08 in Rain Rain
9:17 PM 37.4 °F 27.2 °F 37.4 °F 100% 29.98 in 1.5 mi South 19.6 mph 28.8 mph 0.11 in Rain Rain
9:34 PM 37.4 °F 28.2 °F 37.4 °F 100% 29.98 in 1.0 mi South 16.1 mph 29.9 mph 0.18 in Rain Heavy Rain
9:41 PM 37.4 °F 28.5 °F 37.4 °F 100% 29.98 in 0.5 mi SSE 15.0 mph 23.0 mph 0.21 in Fog , Rain Rain
9:52 PM 37.9 °F 28.9 °F 37.9 °F 100% 29.93 in 0.8 mi SSE 16.1 mph 26.5 mph 0.26 in Rain Rain
10:52 PM 37.9 °F 29.2 °F 37.9 °F 100% 29.91 in 0.5 mi SSE 15.0 mph 27.6 mph 0.17 in Fog , Rain Rain
11:52 PM 39.0 °F 31.0 °F 39.0 °F 100% 29.92 in 0.5 mi South 13.8 mph 26.5 mph 0.26 in Fog , Rain Light Rain